Probability
3 2 2 3 2 1 0 0 1 0 0 0 0 0 0 0 0 0 0 1 1 1 0 0 0 0 0 0 0 0 0 0 0 0 0 0 0 0 0 0 0 0 0 0 0 0 0 0 0
2 1 1 2 1 0 0 1 2 1 0 0 0 0 0 0 0 0 0 0 0 0 0 0 0 0 0 0 0 0 0 0 0 0 0 0 0 0 0 0 0 0 0 0 0 0 0 0 0
1 0 0 0 0 0 0 1 3 3 1 0 0 0 0 0 0 0 0 0 0 0 0 0 0 0 0 0 0 0 0 0 0 0 0 0 0 0 0 0 0 0 0 0 0 0 0 0 0
0 0 0 0 0 0 1 3 4 3 1 1 0 0 0 0 1 1 0 1 1 1 0 1 1 1 1 0 0 0 0 0 0 0 0 0 0 0 0 0 0 0 0 0 0 0 0 0 0
0 0 0 0 0 1 2 3 3 2 1 1 0 0 1 2 3 2 2 2 2 2 1 1 2 2 1 0 0 0 0 0 0 0 0 0 0 0 0 0 0 0 0 0 0 0 0 0 0
0 0 0 0 0 1 3 4 3 3 2 1 0 0 2 7 8 5 3 3 3 3 2 2 2 1 1 0 0 0 0 0 0 0 0 0 0 0 0 0 0 0 0 0 0 0 0 0 0
0 0 0 0 0 1 3 5 6 4 3 1 0 0 4 12 14 10 5 4 4 3 3 2 1 0 0 0 0 0 0 0 0 0 0 0 0 0 0 0 0 0 0 0 0 0 0 0 0
0 0 0 0 0 0 2 5 5 4 3 2 1 2 8 17 21 17 10 7 5 4 3 3 2 1 0 0 0 0 0 0 0 0 0 0 0 0 0 0 0 0 0 0 0 0 0 0 0
0 0 0 0 0 0 2 4 4 4 5 5 5 7 15 23 27 25 17 10 6 4 3 3 3 2 1 0 0 0 0 0 0 0 0 0 0 0 0 0 0 0 0 0 0 0 0 0 0
0 0 0 0 0 0 2 4 5 5 7 9 13 17 21 28 32 30 24 15 8 4 4 3 3 2 1 0 0 0 0 0 0 0 0 0 0 0 0 0 0 0 0 0 0 0 0 0 0
0 0 0 0 0 0 1 3 5 6 6 10 17 21 23 27 30 31 29 23 14 8 6 5 3 2 1 0 0 0 0 0 0 0 0 0 0 0 0 0 0 0 0 0 0 0 0 0 0
0 0 0 0 0 0 1 2 3 4 5 9 15 18 20 21 23 27 29 27 20 14 11 8 5 2 1 0 0 0 0 0 0 0 0 0 0 0 0 0 0 0 0 0 0 0 0 0 0
0 0 0 0 0 1 1 2 2 4 6 9 12 14 14 16 19 23 27 27 23 18 14 11 8 5 3 1 0 0 0 0 0 0 0 0 0 0 0 0 0 0 0 0 0 0 0 0 0
0 0 0 0 0 1 2 4 5 7 10 11 10 10 10 14 21 26 28 27 26 23 17 13 11 9 5 2 0 0 0 0 0 0 0 0 0 0 0 0 0 0 0 0 0 0 0 0 0
0 0 0 0 0 1 3 6 8 10 13 12 8 8 10 17 27 33 32 31 31 30 25 19 14 10 7 4 1 1 1 0 0 0 0 0 0 0 0 0 0 0 0 0 0 0 0 0 0
0 0 0 0 0 1 3 5 7 12 14 11 7 9 13 21 31 38 38 36 36 36 32 25 16 10 7 4 3 3 2 1 1 0 0 0 0 0 0 0 0 0 0 0 0 0 0 0 0
0 0 0 0 1 2 3 4 6 12 15 11 8 11 17 25 33 39 41 40 41 40 35 27 18 10 6 4 4 4 3 1 1 1 1 1 0 0 0 0 0 0 0 0 0 0 0 0 0
0 0 0 0 1 3 4 4 6 12 15 14 12 13 19 26 32 37 41 43 44 43 38 31 23 14 7 4 4 4 3 1 0 1 1 1 1 1 1 1 1 1 0 0 0 0 0 0 0
0 0 0 0 1 2 3 4 5 10 15 17 17 17 19 25 31 39 45 47 48 46 43 40 33 22 12 8 5 4 3 1 0 0 1 1 2 3 3 3 3 2 1 0 0 0 0 0 0
0 0 0 0 0 1 2 2 3 8 14 18 20 20 22 28 36 45 50 52 53 52 50 49 42 30 19 12 7 5 3 1 0 1 2 3 4 6 6 5 4 3 1 1 0 0 0 0 0
0 0 0 0 1 2 3 3 3 7 12 17 21 23 26 34 44 52 56 57 58 56 53 52 45 34 25 17 11 7 4 2 1 1 3 3 3 6 7 7 6 4 3 2 1 1 0 0 0
0 0 0 0 1 2 3 3 3 7 11 15 20 25 32 40 50 56 60 62 61 57 52 49 44 37 30 25 19 12 7 3 1 1 2 2 3 5 7 8 6 4 2 2 2 1 0 0 0
0 0 0 0 0 1 1 2 3 6 10 14 19 30 39 47 54 59 63 65 64 58 53 47 42 38 34 31 25 17 10 5 3 2 2 3 4 4 5 6 4 2 1 1 1 1 0 0 0
0 0 0 0 0 0 0 1 2 3 7 12 21 34 46 51 56 62 65 66 65 61 55 48 41 38 37 34 30 21 13 9 7 5 4 4 5 4 3 3 2 1 0 0 0 0 0 0 0
0 0 0 0 0 0 0 0 1 1 5 13 23 36 48 55 58 63 67 68 66 64 58 49 42 39 37 36 32 25 17 13 11 8 5 4 4 4 3 3 1 0 0 0 0 0 0 0 0
0 0 0 0 0 0 0 0 0 2 7 16 26 36 48 55 57 61 66 68 67 64 58 50 43 40 38 36 31 26 21 18 14 9 6 4 4 4 3 2 1 0 0 0 0 0 0 0 0
0 0 0 0 0 0 0 0 1 6 11 18 27 36 45 49 51 56 62 64 63 61 57 50 44 40 38 36 31 26 24 21 17 11 6 4 3 3 2 1 0 0 0 0 0 0 0 1 1
0 0 0 0 0 0 0 0 2 8 15 19 27 36 42 44 47 51 57 58 57 56 55 52 48 43 39 36 31 26 23 21 18 13 9 5 3 1 1 0 0 0 1 1 1 1 2 2 2
0 0 0 0 0 0 0 0 3 9 16 21 28 34 39 44 48 53 55 54 53 54 54 53 51 47 41 36 31 26 23 21 18 14 12 8 3 1 0 1 1 1 2 2 2 3 3 3 3
0 0 0 0 0 0 0 0 3 10 17 23 29 34 38 44 51 58 59 54 52 55 54 54 54 49 43 37 32 28 24 21 16 14 13 10 5 1 1 2 2 2 3 3 3 4 4 4 3
Wind_Speed
4 2 2 1 5 6 7 6 9 9 8 9 11 11 10 8 7 10 4 12 12 9 8 11 14 15 15 16 16 16 16 16 17 17 17 17 17 17 17 17 17 17 16 16 16 16 16 16 16
2 1 2 3 6 6 5 8 14 13 13 14 14 15 12 11 11 12 7 11 12 11 7 10 15 15 15 15 15 15 15 16 16 16 16 16 16 16 16 16 16 16 16 15 15 15 15 15 14
2 1 3 4 3 6 7 10 15 15 12 11 9 9 8 9 11 8 10 14 11 9 7 11 16 15 15 15 15 15 15 15 15 16 16 16 16 16 16 16 15 15 14 14 14 14 13 13 13
1 3 4 5 5 6 11 13 16 16 12 11 11 9 6 8 8 13 16 15 13 8 7 11 16 15 15 15 14 14 14 15 15 15 15 15 15 15 15 15 15 14 13 13 13 13 12 11 11
3 4 6 5 5 7 11 14 14 11 8 11 13 11 7 8 18 19 16 15 13 9 7 10 16 15 15 14 14 14 14 14 14 14 14 14 14 14 14 14 14 13 13 12 12 11 10 9 9
4 5 5 3 5 6 9 14 16 18 17 15 15 12 6 13 18 17 15 13 12 11 8 9 15 15 14 14 14 14 14 14 14 14 14 14 13 13 13 13 13 12 12 11 10 9 8 7 7
4 4 2 3 4 7 9 11 15 17 16 10 12 10 7 11 15 16 14 13 11 10 8 6 7 10 14 14 14 13 13 13 13 13 13 13 13 12 12 12 12 12 11 10 9 8 7 6 6
5 4 2 2 4 5 8 9 14 18 13 14 10 9 10 12 16 15 14 12 10 8 8 7 6 6 6 8 13 13 13 13 13 13 13 12 12 12 12 10 10 11 10 9 8 6 5 4 3
4 6 2 3 5 5 9 13 10 10 14 8 6 9 16 19 19 16 13 10 9 9 7 7 7 6 6 6 10 10 12 12 11 10 12 9 4 5 6 8 10 10 9 7 6 5 3 2 2
4 4 5 5 7 8 10 14 10 9 11 10 13 14 16 19 19 17 15 13 11 10 9 7 7 7 6 6 5 3 4 5 4 4 5 3 3 3 5 7 9 8 7 6 4 3 1 0 1
3 5 4 3 6 8 8 7 6 13 10 16 21 20 17 17 16 15 14 14 13 12 10 9 8 7 6 5 5 2 2 3 3 4 4 3 3 2 2 2 3 3 4 1 1 1 1 1 1
0 2 4 4 7 8 8 7 6 8 12 17 20 20 16 16 15 15 14 13 12 11 11 10 9 8 7 6 5 4 3 3 3 4 5 4 2 3 2 2 2 1 1 1 1 1 2 2 1
1 1 2 4 7 7 9 8 8 8 14 16 18 16 15 14 12 11 13 13 12 11 10 10 10 9 8 6 5 5 4 4 4 4 5 5 4 4 3 2 2 2 2 2 2 2 2 1 1
2 1 0 3 5 8 12 8 8 11 17 17 17 14 14 14 13 12 13 11 11 11 11 9 9 9 8 6 5 5 5 4 4 4 5 6 4 4 4 3 3 3 3 3 2 2 2 1 1
3 2 3 1 4 6 12 6 8 15 18 17 15 14 13 12 14 15 15 13 12 12 11 9 9 8 8 7 6 5 5 5 4 4 5 5 5 5 4 3 3 3 3 3 2 1 1 1 1
5 4 1 3 4 4 10 6 7 14 18 16 15 13 12 12 14 14 14 12 11 12 11 10 10 8 7 6 5 4 4 5 4 4 4 5 6 6 4 3 3 3 2 2 2 1 1 1 1
5 1 1 4 2 4 7 6 9 12 16 15 14 13 12 11 11 12 14 13 12 13 12 10 9 9 7 6 4 4 4 4 4 4 4 5 5 5 4 3 3 3 2 2 2 2 2 1 1
3 2 2 4 4 5 6 6 10 11 14 16 14 13 12 14 13 13 13 12 11 11 10 10 9 8 7 5 3 3 3 3 3 4 4 5 4 5 4 3 3 3 2 2 2 2 1 2 2
3 3 4 6 4 5 6 8 12 12 11 13 13 13 13 13 11 11 12 13 11 10 10 10 9 8 6 4 4 3 3 3 3 3 5 5 5 5 5 3 3 3 3 3 3 2 2 1 1
5 4 5 5 2 4 5 5 9 13 15 16 16 15 15 12 10 12 12 12 12 12 11 11 10 9 8 5 4 3 3 3 3 3 4 6 6 5 5 5 3 3 3 3 3 2 2 1 1
6 5 5 4 3 4 5 2 3 5 7 10 13 14 14 16 17 15 15 14 13 13 13 11 10 9 8 6 4 2 2 1 1 3 3 5 5 5 4 5 4 4 4 3 3 3 3 2 2
6 6 4 2 2 2 4 3 7 5 5 9 11 11 13 14 13 14 15 15 15 14 12 11 10 9 8 8 6 6 5 4 5 4 4 4 5 5 5 5 5 4 3 4 4 4 3 3 2
7 5 2 1 3 1 1 3 7 2 5 10 12 14 14 15 16 16 16 16 14 13 12 10 10 9 8 8 8 7 5 4 3 3 4 4 4 5 5 5 4 4 4 4 4 3 3 3 3
4 2 6 6 5 1 4 4 6 6 10 10 12 13 13 14 14 14 12 11 10 10 10 10 10 9 9 9 8 8 8 6 5 4 4 4 3 3 4 4 4 4 4 4 4 4 4 3 3
3 6 4 5 4 6 4 3 9 10 9 11 12 14 13 13 14 13 12 12 12 12 11 10 10 9 9 9 8 8 7 7 7 5 5 4 3 3 4 4 4 4 4 4 4 3 4 4 4
4 10 9 5 4 5 4 4 8 7 7 8 8 10 11 12 13 14 14 14 13 13 11 10 11 10 9 9 8 7 7 5 4 5 4 4 4 4 4 5 5 4 4 4 3 3 4 3 4
5 5 9 8 2 1 5 5 6 3 1 4 5 6 10 12 13 14 14 14 13 13 13 12 12 10 9 9 8 6 6 6 5 4 4 4 4 4 4 5 4 4 4 4 3 3 3 3 3
8 7 6 6 4 2 5 3 4 3 1 2 5 6 6 8 10 11 12 13 12 11 10 9 9 9 8 8 7 6 6 5 4 4 4 4 3 3 3 3 4 4 4 3 3 2 2 2 2
4 4 6 5 6 6 2 7 6 6 6 6 5 6 7 8 9 9 9 9 8 7 7 7 8 7 7 8 6 5 4 4 4 3 4 4 3 3 3 3 3 3 3 2 2 2 1 1 1
8 8 8 6 4 5 4 8 6 3 4 7 7 6 7 8 8 9 9 8 8 8 7 7 7 7 7 7 6 5 4 4 4 3 3 3 2 2 2 3 3 3 2 2 2 2 1 1 1
Wind_Direction
276 242 161 71 53 61 84 91 98 88 65 63 76 82 82 67 98 122 135 129 130 128 123 118 114 110 108 106 104 104 103 102 102 101 102 101 101 101 101 101 100 101 102 102 103 103 103 104 106
262 216 99 59 79 86 85 99 92 97 116 104 82 81 76 72 88 113 123 132 131 128 125 123 118 115 113 111 108 107 107 105 104 104 104 104 103 103 103 103 103 102 103 104 105 105 105 105 106
235 187 81 67 91 119 120 113 109 109 110 102 96 73 74 104 114 122 137 137 127 122 124 129 123 120 117 115 113 112 110 108 107 107 107 107 107 106 106 107 107 106 106 107 107 108 107 106 105
101 51 47 69 95 117 125 126 119 113 90 82 93 78 74 109 116 130 136 132 122 120 124 130 126 123 121 120 118 116 114 113 111 110 110 110 109 109 110 110 109 109 109 110 110 110 108 105 103
77 69 51 56 83 102 120 125 123 109 92 93 96 100 84 91 118 129 134 131 127 125 125 129 128 126 125 123 121 120 118 117 115 115 113 112 112 112 112 112 112 113 113 114 113 113 110 107 100
50 60 65 61 85 96 115 117 109 101 108 107 107 105 100 124 129 134 134 130 130 130 127 129 131 130 128 127 126 125 123 122 121 119 117 116 115 116 116 117 118 118 118 117 116 116 113 106 94
106 90 115 129 109 116 125 125 120 123 125 126 125 107 119 134 137 135 132 129 129 129 126 124 131 131 133 131 130 130 128 127 125 124 122 121 121 121 120 121 122 122 122 121 121 120 114 103 89
139 106 79 100 116 125 131 120 135 133 124 133 132 125 147 147 136 130 129 129 130 133 134 132 127 127 129 132 136 136 135 133 132 131 131 129 128 127 125 123 127 128 128 128 127 125 118 104 86
103 83 135 168 146 146 125 113 120 114 130 149 123 130 145 137 133 130 129 130 138 142 144 144 142 140 138 140 142 140 140 140 138 138 139 131 118 120 126 133 134 135 137 137 138 140 134 100 57
98 128 201 187 154 145 135 130 130 114 116 107 110 123 134 136 139 141 145 149 153 156 160 158 156 156 155 149 134 137 141 140 138 140 138 131 136 143 140 147 145 145 147 151 160 168 170 11 19
135 168 190 158 144 137 132 136 120 125 133 145 144 146 146 143 146 150 154 156 160 162 162 164 165 165 162 147 149 151 141 147 154 159 156 145 141 140 129 133 142 145 154 154 194 244 297 307 313
101 198 157 147 135 131 133 132 121 139 158 155 149 149 150 151 154 158 158 159 160 163 166 167 169 169 166 157 160 159 158 167 173 174 165 151 148 150 151 152 159 167 170 185 224 257 272 279 270
43 213 157 141 127 128 120 128 124 130 138 144 147 149 153 156 157 159 158 158 160 165 167 168 169 170 167 162 171 168 172 180 180 172 169 162 159 164 167 174 183 195 187 189 210 233 245 250 270
286 292 162 146 133 124 116 113 108 135 140 148 155 158 161 162 159 155 159 162 164 166 167 165 164 164 162 165 172 171 174 177 173 173 173 166 165 166 167 171 182 194 194 193 198 209 207 209 209
332 25 358 130 129 130 106 86 137 149 149 155 164 167 166 166 163 164 168 168 166 165 163 160 160 160 160 161 167 166 170 170 173 176 173 169 167 168 169 172 184 199 197 189 189 203 172 201 234
4 44 15 278 149 153 112 150 177 158 156 161 170 174 173 173 172 170 170 168 164 161 162 165 165 162 160 158 157 155 162 164 175 175 172 172 173 172 167 173 191 194 177 177 176 176 159 219 236
12 28 250 281 224 148 117 164 181 168 163 167 175 177 176 174 176 174 172 169 165 164 165 167 161 164 164 159 154 151 154 166 174 172 173 174 174 170 166 177 195 185 169 184 200 178 169 196 235
251 253 257 243 238 142 136 168 175 178 172 173 178 178 177 179 181 176 170 168 166 165 165 165 163 167 161 151 140 134 142 165 171 176 183 179 177 175 168 179 194 179 166 184 193 183 187 195 218
241 281 281 268 240 148 156 165 180 184 181 175 178 182 183 185 179 168 168 169 168 168 167 167 168 172 163 158 159 158 174 181 184 191 191 188 186 181 174 182 185 175 176 188 183 177 194 219 184
259 272 284 295 282 137 159 186 187 188 190 185 183 185 184 177 170 169 168 173 176 176 175 172 174 175 175 176 171 167 165 181 189 193 194 193 190 188 186 180 187 188 184 192 191 176 174 230 172
265 234 245 253 339 43 106 325 247 221 204 195 190 187 182 180 178 176 174 180 178 181 181 180 178 178 179 174 159 148 129 138 187 200 204 204 197 195 194 190 189 196 188 195 201 188 178 207 238
251 249 236 222 97 273 132 206 269 226 209 198 194 189 187 183 181 179 176 180 184 185 182 177 176 179 182 176 174 175 180 193 207 202 200 204 202 200 200 197 195 196 196 199 209 198 188 184 225
224 250 238 191 129 47 5 140 271 243 212 209 196 194 190 185 182 183 183 184 184 180 178 178 177 181 185 186 184 184 194 203 203 196 198 202 206 206 204 199 196 197 199 206 213 205 200 193 202
211 27 22 42 69 301 239 158 258 228 209 207 197 194 190 183 181 183 183 176 174 173 176 178 181 188 188 189 187 190 195 198 197 201 200 205 204 206 207 200 199 203 203 206 210 212 212 212 212
110 89 35 2 13 254 256 184 238 234 211 194 189 192 188 179 177 177 175 174 175 176 179 180 183 192 190 190 192 193 195 193 197 199 198 197 200 208 216 212 207 209 212 214 210 214 224 217 218
173 138 153 180 214 275 316 235 256 244 207 184 180 178 175 177 180 182 180 178 181 179 177 182 185 193 194 194 195 193 191 193 201 201 193 194 202 213 212 211 213 216 212 218 209 218 228 225 226
152 164 163 137 175 271 289 291 315 2 123 147 151 156 173 180 180 180 178 179 180 178 179 186 188 191 195 196 193 193 193 193 197 196 189 195 203 209 207 208 213 216 213 212 204 219 233 226 223
158 155 102 115 148 239 292 281 245 262 210 134 135 155 174 171 172 174 175 178 180 179 177 176 185 192 193 193 196 197 197 196 192 185 193 197 200 202 190 202 207 209 208 200 191 201 215 196 219
147 127 119 129 151 156 237 273 241 205 185 154 142 150 158 156 160 161 166 168 165 162 163 171 183 185 184 186 188 191 190 185 180 187 202 197 188 184 184 193 195 192 192 184 170 185 183 177 223
163 170 146 151 207 163 166 265 282 192 168 135 124 128 138 138 147 149 147 147 149 153 167 172 183 183 185 181 176 181 179 175 180 192 198 185 173 172 174 170 164 166 163 157 162 173 179 176 184